Air Resources Laboratory banner image
Air Resources Laboratory web site National Oceanic and Atmospheric Administration (NOAA)

dc roundup


Office: AKQ

ASUS41 KAKQ 171115
RWRAKQ

REGIONAL WEATHER ROUNDUP
NATIONAL WEATHER SERVICE WAKEFIELD VA
600 AM EST SUN DEC 17 2017

Note: "fair" indicates few or no clouds below 12,000 feet with no
significant weather and/or obstructions to visibility. * = Denotes
station may not report precipitation (e.g., rain,snow,etc.),
thunder or fog.

VAZ042-051-052>054-056-171200-
NORTHERN VIRGINIA

CITY           SKY/WX    TMP DP  RH WIND       PRES   REMARKS
WASH NATIONAL  CLOUDY    31  26  82 SW3       30.25R
DULLES         MOCLDY    24  23  96 CALM      30.24R
FORT BELVOIR   PTCLDY    25  22  89 CALM      30.25R
QUANTICO       PTCLDY    28  26  92 NW6       30.27R
FREDERICKSBRG* MOCLDY    26  25  94 CALM      30.24S
STAFFORD*      PTCLDY    26  26 100 CALM      30.29R
WARRENTON      PTCLDY    24  20  85 CALM      30.23R
CULPEPER*      PTCLDY    25  20  83 CALM      30.24S
MANASSAS*      PTCLDY    22  20  92 CALM      30.26R
LEESBURG*      CLOUDY    28  27  93 CALM      30.25R
WINCHESTER     CLOUDY    32  23  69 SW5       30.22R
FRONT ROYAL*   CLOUDY    32  25  74 S5        30.22R
LURAY*         CLOUDY    28  27  93 CALM      30.22F
$$

VAZ048-049-060>072-079>083-171200-
CENTRAL AND SOUTH CENTRAL VIRGINIA

CITY           SKY/WX    TMP DP  RH WIND       PRES   REMARKS
RICHMOND       PTCLDY    30  24  78 CALM      30.24R
CHESTERFIELD*  NOT AVBL
PETERSBURG*    CLOUDY    25  21  86 CALM      30.25R
HANOVER        CLOUDY    27  24  89 CALM      30.25R
TAPPAHANNOCK*  CLOUDY    28  25  91 CALM      30.25R
QUINTON*       FAIR      25  24  95 CALM      30.23S
CHARLOTTSVILLE CLOUDY    31  24  75 CALM      30.22R
GORDONSVILLE*  CLOUDY    26  24  92 CALM      30.22S
ORANGE*        MOCLDY    27  23  86 CALM      30.23R
LOUISA*        PTCLDY    28  23  82 CALM      30.27R
BUMPASS*       FAIR      27  24  90 CALM      30.23R
FARMVILLE*     CLOUDY    28  27  97 CALM      30.23R
CREWE*         FAIR      28  28 100 CALM      30.22R
FORT PICKETT*  NOT AVBL
CHASE CITY*    FAIR      28  27  98 CALM      30.24S
CLARKSVILLE*   FAIR      30  27  86 CALM      30.24S
SOUTH HILL*    CLOUDY    30  26  86 SW3       30.30R
LAWRENCEVILLE* FAIR      30  25  81 CALM      30.24R
EMPORIA*       PTCLDY    23  21  93 CALM      30.28R
$$

VAZ088>098-171200-
SOUTHEAST VIRGINIA

CITY           SKY/WX    TMP DP  RH WIND       PRES   REMARKS
NORFOLK        PTCLDY    31  25  78 SW3       30.26R
VIRGINIA BEACH PTCLDY    30  23  75 SW3       30.27R
NORFOLK NAVAL  PTCLDY    33  26  75 S3        30.28R
WEST POINT*    CLOUDY   N/A N/A N/A CALM      30.26S
SALUDA*        FAIR      28  26  93 CALM      30.25R
NEWPORT NEWS   PTCLDY    29  24  82 CALM      30.26R
LANGLEY AFB    PTCLDY    30  27  88 CALM      30.26R
FORT EUSTIS    CLOUDY    29  24  84 CALM      30.24R
WILLIAMSBURG*  CLOUDY    28  27  93 CALM      30.27R
HR EXEC AP*    FAIR      23  20  88 CALM      30.28R
FRANKLIN*      CLOUDY    25  23  92 CALM      30.27S
US460-WAKEFLD  PTCLDY    25  24  96 CALM      30.26R
$$

VAZ020-022-025-037-045-171200-
WEST CENTRAL AND SOUTHWEST VIRGINIA

CITY           SKY/WX    TMP DP  RH WIND       PRES   REMARKS
STAUNTON*      CLOUDY    26  22  84 CALM      30.24R
WAYNESBORO*    MOSUNNY   39  23  53 W8        30.22R
HOT SPRINGS VA CLOUDY    33  21  62 W8        30.17R
LYNCHBURG      CLOUDY    28  23  81 NW3       30.24R
DANVILLE       PTCLDY    30  24  78 SW5       30.27R
SOUTH BOSTON*  FAIR      26  23  90 CALM      30.26R
MARTINSVILLE   CLOUDY    24  21  89 CALM      30.28S
ROANOKE        PTCLDY    34  25  69 NW3       30.27R
BLACKSBURG     PTCLDY    30  26  85 CALM      30.27R
DUBLIN*        CLOUDY    31  26  79 SW5       30.26R
MARION*        PTCLDY    33  25  72 CALM      30.24F
HILLSVILLE*    PTCLDY    36  20  53 CALM      30.21S
RICHLANDS*     FAIR      37  22  55 CALM      30.23R
WISE*          PTCLDY    34  28  80 SW5       30.23R
ABINGDON*      CLOUDY    32  28  83 CALM      30.25S
$$

MDZ021>025-VAZ099-100-171200-
SOUTHERN MARYLAND AND THE DELMARVA PENINSULA

CITY           SKY/WX    TMP DP  RH WIND       PRES   REMARKS
PATUXENT RIVER CLEAR     27  25  92 W3        30.24R
BAY BRIDGE APT PTCLDY    30  27  86 CALM      30.24R
LEONARDTOWN    CLOUDY    28  27  93 CALM      30.26R
DOVER          CLOUDY    29  29 100 CALM      30.24R
GEORGETOWN     CLOUDY    29  25  85 CALM      30.24S
EASTON         CLEAR     28  27  93 CALM      30.27S
CAMBRIDGE      CLEAR     27  25  93 SE6       30.24S
SALISBURY      CLOUDY    26  25  96 CALM      30.24S
OCEAN CITY     CLOUDY    30  28  92 CALM      30.25S
WALLOPS ISLAND PTCLDY    32  29  88 SW3       30.25R
ACCOMACK*      CLEAR     31  29  94 CALM      30.25S
$$

NCZ012>017-030>032-171200-
NORTH CENTRAL AND EASTERN NORTH CAROLINA

CITY           SKY/WX    TMP DP  RH WIND       PRES   REMARKS
ROANOKE RAPIDS FAIR      28  27  93 CALM      30.26R
RALEIGH        CLOUDY    28  24  85 CALM      30.27R
ELIZABETH CITY CLOUDY    30  28  92 SW7       30.29R
AHOSKIE*       CLOUDY    28  25  91 CALM      30.28R
EDENTON*       NOT AVBL
CURRITUCK*     CLOUDY    32  29  90 CALM      30.28R
KILL DEVIL HLS CLOUDY    36  31  82 CALM      30.27S
MANTEO         CLOUDY    38  31  74 W5        30.29S
CAPE HATTERAS  CLEAR     40  37  89 W3        30.29S
TARBORO*       NOT AVBL
GOLDSBORO      CLOUDY    28  24  83 CALM      30.27R
WASHINGTON     PTCLDY    30  26  83 CALM      30.29S
GREENVILLE     CLOUDY    30  28  93 CALM      30.29S
NEW BERN       CLOUDY    28  28 100 CALM      30.31R FOG
WILMINGTON     CLOUDY    30  28  92 CALM      30.30R
$$

VAZ048-171200-
ELSEWHERE

CITY           SKY/WX    TMP DP  RH WIND       PRES   REMARKS
HARRISBURG PA  PTCLDY    24  22  91 CALM      30.22R
BALTIMORE      MOCLDY    26  24  92 W3        30.23R
ANNAPOLIS      PTCLDY    32  26  78 CALM      30.24R
ANDREWS AFB    CLOUDY    26  22  84 CALM      30.22S
PHILADELPHIA   CLOUDY    33  25  72 E5        30.26R
HENDERSON NC   CLOUDY    25  20  84 SW6       30.24S
GREENSBORO     CLOUDY    28  23  81 CALM      30.23S
ROCKY MOUNT    CLOUDY    27  26  96 CALM      30.28R
$$

VAZ100-171200-
MARINE

STATION/POSITION TIME  TEMP    WIND        PRES    WAVE   SWELL
                       AIR SEA DIR/SP/G            HT/PER HT/PER
                 (UTC) (F)     (DEG/KT/KT) (MB)    (FT/S) (FT/S)
BRANDYWINE LGT   1042   40     360/  3/  4 1024.5R
CAPE MAY NJ      1048   33 40     CALM     1023.9R
LEWES DE         1042   36 41   CALM  /  1 1024.1R
15NM E FENWICK I 1050   46 51  310/  6/  8 1024.6R   2/ 5   2/ 5
OCEAN-CITY-INLET 1042   38 44  300/  2/  3 1024.5R
WACHAPREAGUE VA  1042   33 38   CALM  /  1 1024.4R
THOMAS POINT MD  1100   38 43  250/  3/  3   N/A
GOOSES REEF MD   1100   41 44  230/  4/  6 1024.6    0
COVE POINT MD    1042   38     230/  1/  4 1024.7R
SOLOMONS ISLAND  1042   35 45  300/  1/  2 1023.8R
BISHOPS HEAD MD  1042   38 36  220/  1/  2 1024.3R
PINEY POINT MD   1042          290/  4/  5   N/A
POTOMAC MD       1100   41 44  290/  4/  6 1023.6    0
CAMBRIDGE MD     1042   30 39              1024.5F
LEWISETTA VA     1042   33 38  270/  4/  4 1024.3R
RAPPAHANNOCK LGT 1042          300/  4/  5 1024.9R
STINGRAY PT      1100   40 44  270/  4/  4 1024.7    0
YORK RVR RNG VA  1042   40     250/  4/  5 1024.9R
YORKTOWN VA      1042   36 45   CALM  /  1 1024.1R
JAMESTOWN VA     1100      42  210/  6/  6   N/A     0
DOMINION TERM VA 1042   37     200/  5/  5 1024.9R
KIPTOPEKE VA     1042      43  320/  4/  5   N/A
CAPE HENRY VA    1042   37     220/  6/  7   N/A
WILLOUBY STN VA  1042          220/  8/  9 1024.5R
S CRANEY ISL VA  1042   37     210/  6/  7 1024.5R
CAPE HENRY BUOY  1100      50                N/A     1/10
1ST LANDING BUOY 1100   40 46  250/  6/  6 1024.9    1
CAPE CHARLES BUO 1051      49                N/A     1/ 3
64NM E OF VA BCH 1050   51 59  280/ 10/ 14 1025.3R   3/ 4   2/10
DUCK PIER NC     1042   41 52  210/  6/  8 1024.8R
44100 DUCK FRF   1045      54                N/A     1/ 2
44056 DUCK FRF   1100      54                N/A     1
OREGON INLET NC  1042   41 46  240/  5/  6 1025.5R
HATTERAS NC      1042   45 51  290/  6/  7 1025.2F
DIAMOND SHLS NC  1050   52 72  300/ 10/ 16 1025.8R   3/ 8   2/ 8
CAPE LOOKOUT NC  1100          330/  4/  5 1025.9F
$$